EHI
0 0 0 0 0 0 0 0 0 0 0 0 1 0 1 1 1 0 0 0 0 0 0 0 0 0 0 0 0 0 0 0 0 0 0 0 0 0
0 0 0 0 0 0 0 0 0 0 0 1 1 1 0 0 0 1 1 1 0 0 0 0 0 0 0 0 0 0 0 0 0 0 0 0 0 0
0 0 0 0 0 0 0 0 0 0 0 1 1 1 1 1 1 2 2 1 0 0 0 0 0 0 0 0 0 0 0 0 0 0 0 0 0 0
0 0 0 0 0 0 0 0 0 0 0 0 0 1 1 2 2 3 2 1 1 0 0 0 0 0 0 0 0 0 0 0 0 0 0 0 0 0
0 0 0 0 1 1 1 0 0 0 0 0 0 0 1 2 3 3 3 2 1 0 0 0 0 0 0 0 0 0 0 0 0 0 0 0 0 0
1 1 1 0 1 1 1 1 1 0 0 0 0 0 0 2 3 3 2 2 1 0 0 0 0 0 0 0 0 0 0 0 0 0 0 0 0 0
1 1 1 0 0 0 0 1 1 0 0 0 0 0 0 1 1 1 1 1 0 0 0 0 0 0 0 0 0 0 0 0 0 0 0 0 0 0
0 0 0 0 0 0 0 0 0 0 0 0 0 0 0 0 0 0 0 0 0 0 0 0 0 0 0 0 0 0 0 0 0 0 0 0 0 0
0 0 0 0 1 1 1 0 0 0 0 0 0 0 0 0 0 1 1 1 1 1 1 0 0 0 0 0 0 0 0 0 0 0 0 0 0 0
0 0 0 0 1 2 2 1 1 1 0 0 0 0 0 0 1 2 2 2 1 1 1 1 0 0 0 0 0 0 0 0 0 0 0 0 0 0
0 0 0 1 1 1 2 2 2 2 1 0 0 0 0 0 1 2 2 2 1 1 1 2 1 1 1 1 0 0 0 0 0 0 0 0 0 0
1 1 1 1 0 0 1 2 2 3 2 1 1 0 0 0 0 1 1 1 0 0 1 2 2 2 2 1 0 0 0 0 0 0 0 0 0 0
3 4 3 1 0 0 0 1 1 2 3 2 1 0 0 0 0 0 0 0 0 0 0 1 2 2 1 1 0 0 0 0 0 0 0 0 0 0
3 3 2 1 0 0 0 0 0 0 1 1 1 0 0 0 1 1 1 1 1 0 0 1 1 1 0 0 0 0 0 0 0 0 0 0 0 0
1 1 1 0 0 0 0 0 0 0 0 0 0 0 0 0 1 2 2 2 2 1 0 0 0 0 0 0 0 0 0 0 0 0 0 0 0 0
0 0 0 0 0 0 0 0 0 0 0 0 0 0 0 0 1 1 1 1 1 0 0 0 0 0 0 0 0 0 0 0 0 0 0 0 0 0
0 0 0 0 0 0 0 0 0 0 0 0 0 0 0 0 0 0 0 0 0 0 0 0 0 0 0 0 0 0 0 0 0 0 0 0 0 0
0 0 0 0 0 0 0 0 0 0 0 0 0 0 0 0 0 0 0 0 0 0 0 0 0 0 0 0 0 0 0 0 0 0 0 0 0 0
0 0 0 0 0 0 0 0 0 0 0 0 0 0 0 0 0 0 0 0 0 0 0 0 0 0 0 0 0 0 0 0 0 0 0 0 0 0
0 0 0 0 0 0 0 0 0 0 0 0 0 0 0 0 0 0 0 0 0 0 0 0 0 0 0 0 0 0 0 0 0 0 0 0 0 0
0 0 0 0 0 0 0 0 0 0 0 0 0 0 0 0 0 0 0 0 0 0 0 0 0 0 0 0 0 0 0 0 0 0 0 0 0 0
0 0 0 0 0 0 0 0 0 0 0 0 0 0 0 0 0 0 0 0 0 0 0 0 0 0 0 0 0 0 0 0 0 0 0 0 0 0
0 0 0 0 0 0 0 0 0 0 0 0 0 0 0 0 0 0 0 0 0 0 0 0 0 0 0 0 0 0 0 0 0 0 0 0 0 0
Wind_Speed
1 1 1 0 1 2 2 1 1 1 1 2 2 2 2 4 6 4 3 8 9 8 8 8 7 7 7 7 7 7 7 7 8 8 9 10 11 11
1 1 1 2 1 1 1 1 1 1 1 1 1 3 2 2 5 2 2 8 11 11 11 10 10 9 9 9 8 8 8 9 9 9 9 10 10 11
2 2 1 2 2 2 1 0 1 1 1 1 1 2 2 1 1 2 3 4 6 12 13 13 12 12 11 11 10 10 10 10 10 10 10 10 10 11
3 2 3 2 1 2 2 2 1 1 0 1 1 1 2 3 3 3 5 5 4 8 13 14 13 13 13 13 12 12 12 11 11 11 10 11 11 12
4 3 3 2 2 1 1 2 1 1 1 1 2 2 2 2 3 4 5 4 6 6 9 12 14 15 15 15 14 14 13 13 12 12 12 11 11 12
4 4 3 3 3 3 2 2 2 2 1 2 3 2 2 2 2 2 3 3 4 6 4 5 10 14 16 16 16 15 15 14 14 13 13 13 13 13
4 4 4 4 3 2 2 0 1 1 2 2 3 2 1 1 1 2 3 3 3 3 3 3 4 5 7 12 15 16 16 15 15 15 15 14 14 14
5 5 5 6 6 6 5 3 2 3 3 2 3 3 2 2 1 2 3 3 4 3 3 5 4 4 5 5 9 13 15 16 16 16 16 15 15 15
5 5 6 7 9 7 8 8 7 8 8 4 4 5 4 3 2 4 4 4 5 5 5 6 5 5 5 7 8 11 13 15 15 16 16 16 16 16
5 5 5 5 5 5 5 6 6 7 9 8 7 7 6 3 3 4 5 6 6 6 5 6 5 5 6 4 8 10 12 14 15 16 16 17 17 16
6 6 6 6 6 6 5 5 5 5 8 10 10 9 9 9 6 3 4 5 6 5 4 4 5 5 4 5 6 10 11 14 15 16 16 17 17 15
6 7 8 7 7 8 6 5 6 5 5 5 6 8 9 10 11 8 6 6 6 5 4 3 4 4 5 4 4 4 6 10 13 15 15 16 16 9
6 5 5 9 10 11 9 6 6 4 4 5 5 6 6 6 7 7 7 7 7 6 5 4 4 4 5 5 5 5 5 5 5 7 12 15 15 11
4 3 3 8 11 11 8 6 6 5 4 5 5 5 5 5 5 5 6 7 8 9 8 6 5 6 6 8 7 5 5 5 5 6 5 9 12 14
3 1 1 3 6 7 9 8 6 5 5 5 6 5 5 4 4 4 5 5 7 8 8 8 7 6 6 8 8 6 6 6 6 6 5 5 5 5
6 4 3 4 4 5 5 6 6 6 6 6 5 5 4 4 4 3 3 3 4 5 6 6 6 6 6 7 7 7 6 6 6 6 6 5 5 5
5 4 4 4 4 4 4 4 4 5 6 5 5 5 5 4 4 3 3 3 4 5 5 4 4 5 6 6 7 7 7 7 7 6 6 7 6 6
4 4 5 4 4 4 4 4 3 3 4 4 4 5 4 4 4 4 4 4 5 5 5 5 5 5 6 6 8 8 7 6 6 6 6 7 8 6
3 3 3 3 3 3 2 2 3 3 3 3 4 4 3 3 4 4 4 5 5 6 5 5 5 6 8 9 6 5 6 7 7 7 6 7 8 7
2 1 1 2 2 2 2 2 2 2 2 3 3 3 3 4 4 5 5 6 6 6 6 5 5 5 6 8 8 8 9 8 7 7 7 7 7 9
0 1 1 2 2 2 2 2 2 2 3 3 3 3 3 4 4 4 5 7 6 6 6 6 5 7 6 5 7 7 7 8 9 7 8 8 8 7
1 1 1 2 1 1 1 2 2 3 3 3 3 3 3 4 5 6 6 6 5 6 7 6 6 6 5 7 9 10 9 8 8 12 13 12 8 8
1 2 2 3 3 2 2 3 3 3 3 3 3 4 4 5 5 6 6 6 6 7 7 7 6 6 6 7 8 8 11 10 8 8 8 11 14 17
Wind_Direction
211 202 292 323 350 359 11 20 1 321 192 155 135 135 129 124 161 197 176 194 205 215 223 228 234 241 249 256 261 265 267 268 269 270 273 274 273 272
196 131 342 338 11 4 353 354 353 340 350 104 157 140 126 126 168 234 234 198 211 220 223 225 230 236 242 248 255 259 262 263 264 265 267 269 270 272
204 163 164 335 355 340 338 340 322 358 351 334 94 108 123 127 164 253 253 224 218 222 224 225 228 233 236 241 247 252 256 258 260 263 265 268 269 271
202 184 185 199 190 334 343 339 356 47 22 310 326 197 192 194 209 239 262 263 254 230 222 223 226 232 236 241 244 247 249 252 255 258 261 265 268 270
186 196 199 195 195 230 273 303 310 284 196 258 270 254 218 217 216 244 262 265 279 263 226 223 228 233 237 240 242 244 245 247 249 252 256 260 263 266
187 197 203 205 195 215 232 237 275 294 290 268 266 257 237 227 206 252 278 266 271 283 265 238 231 233 238 241 242 242 243 244 246 248 251 255 257 260
198 200 211 204 178 195 236 205 278 276 273 264 266 268 261 278 253 267 283 285 275 271 276 275 250 241 242 243 242 242 241 242 244 245 248 250 252 254
205 208 212 194 191 200 216 218 223 256 278 289 287 290 293 300 305 296 297 306 300 301 312 293 284 269 255 244 236 232 234 238 242 243 244 246 247 249
210 213 232 227 198 201 213 225 235 239 232 246 268 277 286 294 307 304 297 291 282 285 292 283 279 277 275 283 263 240 235 236 238 241 242 243 245 246
222 220 228 253 224 207 212 212 220 228 223 224 237 251 263 270 269 271 277 279 270 265 259 271 274 272 281 277 267 257 244 240 240 241 242 243 244 246
234 230 223 227 219 205 215 231 237 244 240 232 228 238 245 253 252 268 272 277 281 279 265 264 273 274 271 269 266 261 256 248 246 246 247 248 248 249
226 230 231 227 216 200 207 224 241 247 264 264 244 245 246 248 240 229 240 254 268 277 271 274 284 295 289 274 280 281 269 264 256 253 254 253 252 248
228 219 213 209 208 205 207 218 229 245 265 265 259 247 238 239 238 228 223 230 247 259 273 283 289 290 282 288 289 280 272 272 268 261 256 256 254 237
235 229 210 199 202 205 209 226 233 242 256 262 264 260 256 253 245 240 231 227 230 243 257 263 268 270 279 285 287 284 282 278 274 270 265 262 255 246
244 251 233 188 196 208 221 226 231 235 244 254 259 263 263 264 263 257 246 239 243 249 255 251 252 259 261 271 279 281 288 284 277 277 277 275 269 257
237 235 224 212 220 233 222 223 225 232 238 250 261 267 273 275 274 275 276 275 271 272 265 260 257 261 268 271 276 281 280 280 284 284 283 281 280 273
208 220 229 220 222 230 233 229 223 227 238 250 262 269 272 276 280 283 280 284 282 285 286 279 268 261 260 266 275 273 274 277 276 279 287 287 279 272
188 220 224 230 236 240 243 242 240 240 243 247 253 259 267 273 279 282 282 280 279 281 285 289 292 290 284 269 251 268 274 276 280 284 284 283 282 276
192 226 237 246 253 255 254 256 260 257 250 254 261 268 274 279 284 288 289 287 285 283 282 285 288 289 292 293 287 270 283 284 283 280 275 274 279 279
220 239 257 272 277 277 278 282 288 292 286 285 285 290 291 288 288 289 288 287 289 292 293 292 289 285 284 289 292 289 272 272 280 283 285 282 275 274
225 274 276 280 284 288 303 312 312 311 312 309 305 308 307 301 295 295 294 297 294 292 293 292 288 290 287 291 289 287 286 281 278 281 289 289 288 287
358 332 313 296 303 335 338 324 314 309 310 309 310 312 309 305 303 300 295 295 292 291 293 294 301 301 293 287 288 291 295 298 293 285 276 266 271 278
17 356 346 346 5 9 358 334 322 318 321 329 330 324 319 311 305 301 300 298 300 299 299 299 302 298 294 291 294 297 301 303 301 295 287 279 273 268